Terug naar catalogus

COSMOS 2251 DEB

ActiefLEO
NORAD 35462·DEBRIS·🇷🇺 Russia

Gelanceerd Jun 16, 1993 vanaf Plesetsk Cosmodrome

Loading…

Volgende Passages (komende 24 uur)

TLE

VersSource: Space-Track

Epoch: Sep 14, 2026, 08:29 UTC

1 35462U 93036ALG 26257.35373597  .00001871  00000-0  69467-3 0  9997
2 35462  74.0334 127.2939 0083626  97.1904 263.8763 14.30927616703218

Volg COSMOS 2251 DEB in realtime met AllMySat

Download on the App Store